Tracking 35048 objects as of 19-Aug-2026
HD Live streaming from Space Station
objects crossing your sky now

EMISAR

Track EMISAR now!
10-day predictions
EMISAR is classified as:


NORAD ID: 68427
Int'l Code: 2026-067M
Launch date: March 30, 2026
Source: Romania (ROM)
Launch site: AIR FORCE WESTERN TEST RANGE (AFWTR)

Uplink (MHz):
Downlink (MHz): 401.334
Beacon (MHz): 401.334
Mode: 9k6_GFSK CW
Call sign:
Status: Active

Your satellite tracking list
Your tracking list is empty




NASA's NSSDC Master Catalog

Two Line Element Set (TLE):
1 68427U 26067M   26230.85016284  .00007910  00000-0  36742-3 0  9997
2 68427  97.4599 188.6641 0003585 102.7472 257.4164 15.20265841 21466
Source of the keplerian elements: AFSPC